GW2175 Weather Reports


time (UTC)temp
F
wind
direction
speed
knots
gust
knots
rain 1hr
in
rain 24hr
in
rain mn
in
humidity
%
barometer
mb
20260510225247 81 152 1.7 1.7 0.00 0.01 0.01 76 1017.8
20260510224743 80 84 0.9 1.7 0.00 0.01 0.01 78 1017.9
20260510224239 80 217 3.5 4.3 0.00 0.01 0.01 78 1018.1
20260510223737 81 133 1.7 2.6 0.00 0.01 0.01 76 1018.0
20260510223234 80 127 0.0 0.9 0.00 0.01 0.01 79 1018.0
20260510222731 80 223 2.6 2.6 0.00 0.01 0.01 79 1017.9
20260510222228 81 138 1.7 1.7 0.00 0.01 0.01 76 1018.1
20260510221723 81 248 1.7 2.6 0.00 0.01 0.01 78 1017.9
20260510221220 79 123 1.7 1.7 0.00 0.01 0.01 79 1018.0
20260510220717 80 251 3.5 4.3 0.00 0.01 0.01 78 1017.8
20260510220212 79 273 2.6 2.6 0.00 0.01 0.01 79 1018.0
20260510215709 80 241 4.3 5.2 0.00 0.01 0.01 78 1018.1
20260510215208 80 259 3.5 4.3 0.00 0.01 0.01 77 1017.8
20260510214704 81 152 0.9 1.7 0.00 0.01 0.01 77 1017.8
20260510214201 81 253 4.3 6.1 0.00 0.01 0.01 76 1017.7
20260510213658 80 304 4.3 4.3 0.00 0.01 0.01 75 1017.7
20260510213154 80 278 2.6 2.6 0.00 0.01 0.01 76 1017.9
20260510212650 81 290 4.3 4.3 0.00 0.01 0.01 73 1017.9
20260510212148 81 287 3.5 6.1 0.00 0.01 0.01 75 1017.9
20260510211645 81 276 3.5 5.2 0.00 0.01 0.01 73 1018.0
20260510211145 83 282 3.5 4.3 0.00 0.01 0.01 71 1017.9
20260510210642 83 179 2.6 2.6 0.00 0.01 0.01 69 1017.8
20260510210137 82 283 2.6 2.6 0.00 0.01 0.01 69 1017.8
20260510205636 83 220 2.6 2.6 0.00 0.01 0.01 67 1017.6
20260510205132 83 186 1.7 1.7 0.00 0.01 0.01 68 1017.6
20260510204628 83 269 2.6 4.3 0.00 0.01 0.01 69 1017.7
20260510204125 82 286 2.6 2.6 0.00 0.01 0.01 69 1018.0
20260510203622 83 304 2.6 2.6 0.00 0.01 0.01 66 1017.8
20260510203119 83 207 1.7 1.7 0.00 0.01 0.01 67 1017.9
20260510202619 82 283 2.6 4.3 0.00 0.01 0.01 67 1017.8
20260510202114 82 176 2.6 2.6 0.00 0.01 0.01 68 1017.9
20260510201612 82 132 0.9 0.9 0.00 0.01 0.01 70 1018.2
20260510201109 82 157 2.6 2.6 0.00 0.01 0.01 70 1017.8
20260510200604 82 247 2.6 2.6 0.00 0.01 0.01 70 1017.9
20260510195600 81 164 1.7 1.7 0.00 0.01 0.01 71 1018.1
20260510195056 81 192 1.7 1.7 0.00 0.01 0.01 70 1018.0
20260510194551 81 251 2.6 2.6 0.00 0.01 0.01 69 1018.3
20260510194047 80 301 2.6 4.3 0.00 0.01 0.01 71 1018.2
20260510193542 80 281 4.3 5.2 0.00 0.01 0.01 71 1018.0
20260510193038 80 328 2.6 2.6 0.00 0.01 0.01 72 1018.1
20260510192537 80 189 1.7 1.7 0.00 0.01 0.01 71 1018.3
20260510192034 79 205 2.6 2.6 0.00 0.01 0.01 71 1018.3
20260510191530 79 183 1.7 1.7 0.00 0.01 0.01 71 1018.2
20260510191027 79 252 2.6 4.3 0.00 0.01 0.01 72 1018.2
20260510190525 78 276 4.3 5.2 0.00 0.01 0.01 71 1018.3
20260510190022 78 272 4.3 5.2 0.00 0.01 0.01 71 1018.1
20260510185518 78 273 2.6 4.3 0.00 0.01 0.01 72 1018.3
20260510185016 78 266 4.3 5.2 0.00 0.01 0.01 72 1018.4
20260510184513 78 263 3.5 5.2 0.00 0.01 0.01 74 1018.6
20260510184009 78 190 2.6 4.3 0.00 0.01 0.01 75 1018.7
20260510183504 78 265 3.5 5.2 0.00 0.01 0.01 76 1018.8
20260510182959 78 194 2.6 2.6 0.00 0.01 0.01 79 1018.9
20260510182456 78 181 1.7 1.7 0.00 0.01 0.01 78 1018.9
20260510181951 77 153 0.9 1.7 0.00 0.01 0.01 79 1018.8
20260510181450 78 288 2.6 2.6 0.00 0.01 0.01 78 1018.8
20260510180945 77 187 2.6 2.6 0.00 0.01 0.01 79 1018.7
20260510180443 77 277 3.5 5.2 0.00 0.01 0.01 80 1018.9
20260510175939 77 208 2.6 2.6 0.00 0.01 0.01 79 1018.9
20260510175435 78 279 4.3 6.1 0.00 0.01 0.01 79 1019.0
20260510174931 77 250 0.9 1.7 0.00 0.01 0.01 78 1018.9
20260510174430 77 312 2.6 2.6 0.00 0.01 0.01 78 1019.3
20260510173926 76 237 1.7 1.7 0.00 0.01 0.01 79 1019.3
20260510173421 76 262 3.5 4.3 0.00 0.01 0.01 78 1019.2
20260510172918 76 279 3.5 5.2 0.00 0.01 0.01 78 1019.2
20260510172414 76 270 4.3 5.2 0.00 0.01 0.01 78 1019.4
20260510171910 78 104 0.9 0.9 0.00 0.01 0.01 76 1019.2
20260510171408 78 201 2.6 4.3 0.00 0.01 0.01 78 1019.3
20260510170904 77 62 0.9 0.9 0.00 0.01 0.01 77 1019.3
20260510170401 77 129 0.9 0.9 0.00 0.01 0.01 78 1019.6
20260510165856 76 118 0.9 0.9 0.00 0.01 0.01 80 1019.5
20260510165353 75 202 2.6 2.6 0.00 0.01 0.01 81 1019.7
20260510164850 75 244 3.5 5.2 0.00 0.01 0.01 81 1019.6
20260510164347 75 274 4.3 5.2 0.00 0.01 0.01 82 1019.7
20260510163847 76 80 0.9 0.9 0.00 0.01 0.01 81 1019.8
20260510163343 75 257 2.6 2.6 0.00 0.01 0.01 82 1019.7
20260510162837 75 93 0.9 1.7 0.00 0.01 0.01 82 1019.5
20260510162335 74 100 0.9 0.9 0.00 0.01 0.01 83 1019.7
20260510161831 75 31 1.7 2.6 0.00 0.01 0.01 83 1019.6
20260510161327 75 291 3.5 4.3 0.00 0.01 0.01 83 1019.4
20260510160824 74 111 0.0 0.9 0.00 0.01 0.01 84 1019.5
20260510160321 74 174 2.6 2.6 0.00 0.01 0.01 84 1019.6
20260510155815 74 21 3.5 4.3 0.00 0.01 0.01 85 1019.5
20260510155312 74 127 0.0 0.9 0.00 0.01 0.01 86 1019.5
20260510154807 73 119 0.9 0.9 0.00 0.01 0.01 87 1019.7
20260510154303 73 154 1.7 1.7 0.00 0.01 0.01 87 1019.4
20260510153758 73 91 0.9 1.7 0.00 0.01 0.01 87 1019.6
20260510153254 72 86 0.0 0.9 0.00 0.01 0.01 90 1019.4
20260510152751 72 91 1.7 1.7 0.00 0.01 0.01 91 1019.5
20260510152248 71 110 0.0 0.0 0.00 0.01 0.01 93 1019.5
20260510151744 70 100 0.9 1.7 0.00 0.01 0.01 94 1019.3
20260510151243 70 83 1.7 1.7 0.00 0.01 0.01 94 1019.3
20260510150738 70 112 0.0 0.0 0.00 0.01 0.01 94 1019.5
20260510150234 70 111 0.0 0.0 0.00 0.01 0.01 95 1019.5
20260510145730 69 111 0.0 0.9 0.00 0.01 0.01 95 1019.6
20260510145227 69 114 0.0 0.9 0.00 0.01 0.01 95 1019.6
20260510144723 70 120 0.9 0.9 0.00 0.01 0.01 95 1019.6
20260510144221 69 103 0.0 0.9 0.00 0.01 0.01 96 1019.8
20260510143714 70 106 0.0 0.0 0.00 0.01 0.01 96 1019.7
20260510143211 69 110 0.0 0.0 0.00 0.01 0.01 96 1019.5
20260510142708 69 109 0.0 0.0 0.00 0.01 0.01 96 1019.7
20260510142204 68 114 0.0 0.0 0.00 0.01 0.01 96 1019.6
20260510141701 68 114 0.0 0.0 0.00 0.01 0.01 96 1019.8
20260510141200 69 110 0.0 0.0 0.00 0.01 0.01 96 1019.8
20260510140656 68 114 0.0 0.0 0.00 0.01 0.01 96 1019.9
20260510140155 68 121 0.0 0.0 0.00 0.01 0.01 96 1019.6
20260510135650 68 109 0.0 0.0 0.00 0.01 0.01 96 1019.3
20260510135147 68 113 0.9 0.9 0.00 0.01 0.01 96 1019.5
20260510134644 67 113 0.0 0.0 0.00 0.01 0.01 96 1019.4
20260510134141 67 74 0.9 1.7 0.00 0.01 0.01 96 1019.4
20260510133637 67 104 0.0 0.0 0.00 0.01 0.01 96 1019.3
20260510133132 67 105 0.9 0.9 0.00 0.01 0.01 96 1019.3
20260510132629 67 112 0.0 0.0 0.00 0.01 0.01 96 1019.1
20260510132127 67 110 0.0 0.0 0.00 0.01 0.01 96 1019.3
20260510131624 67 114 0.0 0.0 0.00 0.01 0.01 96 1019.4
20260510131121 66 109 0.0 0.0 0.00 0.01 0.01 96 1019.1
20260510130618 67 113 0.0 0.0 0.00 0.01 0.01 96 1019.2
20260510130115 66 113 0.0 0.0 0.00 0.01 0.01 96 1018.9
20260510125612 66 103 0.0 0.0 0.00 0.01 0.01 96 1018.9
20260510125108 66 108 0.0 0.0 0.00 0.01 0.01 96 1019.1
20260510124604 66 111 0.0 0.0 0.00 0.01 0.01 96 1019.0
20260510124102 65 116 0.0 0.0 0.00 0.01 0.01 96 1018.7
20260510123556 65 113 0.0 0.0 0.00 0.01 0.01 96 1018.6
20260510123053 65 99 0.0 0.0 0.00 0.01 0.01 96 1018.7
20260510122549 65 109 0.0 0.0 0.00 0.01 0.01 96 1018.6
20260510122045 65 111 0.0 0.0 0.00 0.01 0.01 96 1018.5
20260510121543 65 111 0.0 0.0 0.00 0.01 0.01 96 1018.3
20260510121040 65 121 0.9 0.9 0.00 0.01 0.01 96 1018.3
20260510120537 65 112 0.0 0.0 0.00 0.01 0.01 96 1018.2
20260510120032 64 108 0.0 0.0 0.00 0.01 0.01 96 1018.0
20260510115529 64 109 0.0 0.0 0.00 0.01 0.01 96 1018.1
20260510115026 64 108 0.0 0.0 0.00 0.01 0.01 96 1018.0
20260510114522 64 120 0.0 0.0 0.00 0.01 0.01 96 1018.0
20260510114019 64 116 0.0 0.0 0.00 0.01 0.01 96 1017.8
20260510113514 64 114 0.0 0.0 0.00 0.01 0.01 96 1017.8
20260510113012 64 113 0.0 0.0 0.00 0.01 0.01 96 1018.0
20260510112508 64 114 0.0 0.0 0.00 0.01 0.01 96 1018.0
20260510112005 64 114 0.0 0.0 0.00 0.01 0.01 96 1017.8
20260510111501 64 108 0.0 0.0 0.00 0.01 0.01 96 1017.6
20260510110957 64 114 0.0 0.0 0.00 0.01 0.01 96 1017.2
20260510110454 64 114 0.0 0.0 0.00 0.01 0.01 96 1017.5
20260510105950 64 116 0.0 0.0 0.00 0.01 0.01 96 1017.6
20260510105445 64 106 0.0 0.0 0.00 0.01 0.01 96 1017.4
20260510104940 64 106 0.0 0.0 0.00 0.01 0.01 96 1017.1
20260510104437 64 106 0.0 0.0 0.00 0.01 0.01 96 1017.3
20260510103933 64 106 0.0 0.0 0.00 0.01 0.01 96 1017.3
20260510103426 64 100 0.0 0.0 0.00 0.01 0.01 96 1016.9
20260510102920 64 108 0.0 0.0 0.00 0.01 0.01 96 1017.1
20260510102416 64 111 0.0 0.0 0.00 0.01 0.01 96 1016.8
20260510101914 64 113 0.0 0.0 0.00 0.01 0.01 96 1016.5
20260510101412 64 113 0.0 0.0 0.00 0.01 0.01 96 1016.6
20260510100909 64 114 0.0 0.0 0.00 0.01 0.01 96 1016.4
20260510100406 64 118 0.0 0.0 0.00 0.01 0.01 96 1016.5
20260510095902 64 115 0.0 0.0 0.00 0.01 0.01 96 1016.7
20260510095357 64 106 0.0 0.0 0.00 0.01 0.01 96 1016.5
20260510094856 64 106 0.0 0.0 0.00 0.01 0.01 96 1016.7
20260510094352 64 112 0.0 0.0 0.00 0.01 0.01 96 1016.6
20260510093848 64 106 0.0 0.0 0.00 0.01 0.01 96 1016.4
20260510093344 64 111 0.0 0.0 0.00 0.01 0.01 96 1016.3
20260510092840 64 105 0.0 0.0 0.00 0.01 0.01 96 1016.1
20260510092337 64 106 0.0 0.0 0.00 0.01 0.01 96 1016.1
20260510091832 64 106 0.0 0.0 0.00 0.01 0.01 96 1016.2
20260510091324 65 109 0.0 0.0 0.00 0.01 0.01 96 1016.1
20260510090820 65 113 0.0 0.0 0.00 0.01 0.01 96 1015.9
20260510090317 65 109 0.0 0.0 0.00 0.01 0.01 96 1016.0
20260510085812 65 113 0.0 0.0 0.00 0.01 0.01 96 1016.0
20260510085307 65 113 0.0 0.0 0.00 0.01 0.01 96 1015.9
20260510084803 65 113 0.0 0.0 0.00 0.01 0.01 96 1015.6
20260510084300 65 109 0.0 0.0 0.00 0.01 0.01 96 1016.1
20260510083757 65 109 0.0 0.0 0.00 0.01 0.01 96 1015.8
20260510083254 65 109 0.0 0.0 0.00 0.01 0.01 96 1015.8
20260510082749 65 111 0.0 0.0 0.00 0.01 0.01 96 1016.1
20260510082246 65 103 0.0 0.0 0.00 0.01 0.01 96 1015.7
20260510081745 66 109 0.0 0.0 0.00 0.01 0.01 96 1015.7
20260510081241 66 111 0.0 0.0 0.00 0.01 0.01 96 1015.6
20260510080737 66 112 0.0 0.0 0.00 0.01 0.01 96 1015.5
20260510080233 66 109 0.0 0.0 0.00 0.01 0.01 96 1015.6
20260510075730 66 108 0.0 0.0 0.00 0.01 0.01 96 1015.4
20260510075227 66 109 0.0 0.0 0.00 0.01 0.01 96 1015.5
20260510074724 66 106 0.0 0.0 0.00 0.01 0.01 96 1015.6
20260510074221 66 108 0.0 0.0 0.07 0.01 0.01 96 1015.6
20260510073717 66 102 0.0 0.0 0.07 0.01 0.01 96 1015.4
20260510073213 66 106 0.0 0.0 0.00 0.00 0.00 96 1015.6
20260510072709 66 104 0.0 0.0 0.00 0.00 0.00 96 1015.5
20260510072206 66 96 0.0 0.9 0.00 0.00 0.00 96 1015.5
20260510071702 66 107 0.0 0.0 0.00 0.00 0.00 96 1015.5
20260510071159 66 78 0.9 1.7 0.00 0.00 0.00 96 1015.4
20260510070656 66 109 0.0 0.0 0.00 0.00 0.00 96 1015.0
20260510070154 66 107 0.0 0.0 0.00 0.00 0.00 96 1014.9
20260510065649 66 111 0.0 0.0 0.00 0.00 0.00 96 1015.2
20260510065145 66 101 0.9 0.9 0.00 0.00 0.00 96 1015.0
20260510064642 66 111 0.0 0.0 0.00 0.00 0.00 96 1015.1
20260510064139 66 111 0.0 0.0 0.00 0.00 0.00 96 1015.2
20260510063636 66 111 0.0 0.0 0.00 0.00 0.00 96 1015.1
20260510063133 66 111 0.0 0.0 0.00 0.00 0.00 96 1015.1
20260510062629 66 111 0.0 0.0 0.00 0.00 0.00 96 1014.9
20260510062125 66 108 0.0 0.0 0.00 0.00 0.00 96 1015.0
20260510061620 66 86 0.9 0.9 0.00 0.00 0.00 96 1015.3
20260510061118 66 111 0.0 0.0 0.00 0.00 0.00 96 1015.1
20260510060614 66 111 0.0 0.0 0.00 0.00 0.00 96 1015.6
20260510060111 66 122 0.0 0.0 0.00 0.00 0.00 96 1015.4
20260510055607 66 115 0.9 0.9 0.00 0.00 0.00 96 1015.1
20260510055105 66 117 0.0 0.0 0.00 0.00 0.00 96 1015.2
20260510054600 66 114 0.0 0.0 0.00 0.00 0.00 96 1015.2
20260510054056 66 122 0.9 0.9 0.00 0.00 0.00 96 1015.4
20260510053555 67 120 0.9 0.9 0.00 0.00 0.00 96 1015.6
20260510053052 67 125 0.0 0.0 0.00 0.00 0.00 96 1015.8
20260510052548 67 111 0.0 0.0 0.00 0.00 0.00 96 1016.0
20260510052044 67 118 0.0 0.0 0.00 0.00 0.00 96 1016.1
20260510051540 67 127 0.0 0.0 0.00 0.00 0.00 96 1015.9
20260510051037 67 134 0.0 0.9 0.00 0.00 0.00 96 1016.1
20260510050534 67 159 1.7 1.7 0.00 0.00 0.00 96 1016.3
20260510050031 67 106 0.0 0.0 0.00 0.95 0.95 96 1016.3
20260510045528 67 129 0.9 0.9 0.00 0.95 0.95 96 1016.1
20260510045024 67 108 0.0 0.0 0.00 0.95 0.95 96 1016.1
20260510044521 67 109 0.0 0.0 0.00 0.95 0.95 96 1016.2
20260510044019 67 115 0.0 0.0 0.00 0.95 0.95 96 1016.2
20260510043514 67 107 0.0 0.0 0.00 0.95 0.95 96 1016.5
20260510043009 67 107 0.0 0.0 0.00 0.95 0.95 96 1016.1
20260510042503 67 121 0.9 0.9 0.00 0.95 0.95 96 1016.7
20260510041958 67 103 0.0 0.0 0.00 0.95 0.95 96 1016.5
20260510041456 67 106 0.0 0.0 0.00 0.95 0.95 96 1016.3
20260510040954 67 109 0.0 0.0 0.00 0.95 0.95 96 1016.3
20260510040450 67 109 0.0 0.0 0.00 0.95 0.95 96 1016.4
20260510035946 67 107 0.0 0.0 0.00 0.95 0.95 96 1016.3
20260510035443 67 113 0.0 0.0 0.00 0.95 0.95 96 1016.4
20260510034942 67 106 0.0 0.0 0.00 0.95 0.95 96 1016.5
20260510034441 67 105 0.0 0.0 0.00 0.95 0.95 96 1016.4
20260510033937 67 107 0.0 0.0 0.00 0.95 0.95 96 1016.4
20260510033433 67 106 0.0 0.0 0.00 0.95 0.95 96 1016.6
20260510032931 67 101 0.0 0.0 0.00 0.95 0.95 96 1016.5
20260510032428 67 101 0.0 0.0 0.00 0.95 0.95 96 1016.8
20260510031922 67 106 0.0 0.0 0.00 0.95 0.95 96 1016.4
20260510031418 67 99 0.0 0.0 0.00 0.95 0.95 96 1016.4
20260510030913 67 117 0.0 0.0 0.00 0.95 0.95 96 1016.3
20260510030410 67 108 0.0 0.0 0.00 0.95 0.95 96 1016.3
20260510025908 67 106 0.0 0.0 0.00 0.95 0.95 96 1016.3
20260510025405 67 106 0.0 0.0 0.00 0.95 0.95 96 1016.0
20260510024902 67 114 0.0 0.0 0.00 0.95 0.95 96 1015.7
20260510024358 67 120 0.0 0.0 0.00 0.95 0.95 96 1015.8
20260510023854 67 120 0.0 0.0 0.00 0.95 0.95 96 1015.9
20260510023351 67 114 0.0 0.0 0.00 0.95 0.95 95 1015.9
20260510022848 67 108 0.0 0.0 0.00 0.95 0.95 95 1015.8
20260510022347 67 113 0.0 0.0 0.00 0.95 0.95 95 1015.8
20260510021846 67 113 0.0 0.0 0.00 0.95 0.95 95 1015.6
20260510021344 67 106 0.0 0.0 0.00 0.95 0.95 95 1015.7
20260510020841 68 113 0.0 0.0 0.00 0.95 0.95 95 1016.0
20260510020340 68 113 0.0 0.0 0.00 0.95 0.95 95 1016.0
20260510015836 68 114 0.0 0.0 0.00 0.95 0.95 95 1016.2
20260510015333 68 110 0.0 0.0 0.00 0.95 0.95 95 1016.0
20260510014828 68 115 0.0 0.0 0.00 0.95 0.95 95 1015.8
20260510014326 68 106 0.0 0.0 0.00 0.95 0.95 95 1016.0
20260510013821 68 119 0.0 0.0 0.00 0.95 0.95 95 1016.1
20260510013317 68 113 0.0 0.0 0.00 0.95 0.95 95 1015.7
20260510012813 68 110 0.0 0.0 0.00 0.95 0.95 95 1015.9
20260510012312 68 127 0.0 0.0 0.05 0.95 0.95 95 1015.7
20260510011807 68 106 0.0 0.0 0.05 0.95 0.95 95 1015.7
20260510011303 68 110 0.0 0.0 0.12 0.95 0.95 95 1015.8
20260510010759 68 114 0.0 0.0 0.12 0.94 0.94 95 1015.8
20260510010256 68 116 0.0 0.0 0.05 0.93 0.93 95 1016.0
20260510005753 68 110 0.0 0.0 0.00 0.92 0.92 95 1016.0
20260510005249 68 113 0.0 0.0 0.00 0.92 0.92 95 1016.0
20260510004748 68 103 0.0 0.0 0.00 0.92 0.92 95 1015.9
20260510004245 68 123 0.0 0.0 0.00 0.92 0.92 95 1015.7
20260510003742 68 110 0.0 0.0 0.00 0.92 0.92 95 1015.9
20260510003239 68 116 0.0 0.0 0.00 0.92 0.92 95 1015.7
20260510002737 68 123 0.0 0.0 0.00 0.92 0.92 95 1015.5
20260510002235 68 115 0.0 0.0 0.00 0.92 0.92 95 1015.6
20260510001731 68 132 0.0 0.0 0.00 0.92 0.92 95 1015.6
20260510001230 68 112 0.0 0.0 0.07 0.92 0.92 95 1015.4
20260510000725 68 119 0.0 0.0 0.07 0.92 0.92 95 1015.1
20260510000223 68 115 0.0 0.0 0.00 0.91 0.91 95 1015.1
20260509235720 68 121 0.0 0.0 0.00 0.91 0.91 95 1014.8
20260509235216 68 116 0.0 0.0 0.00 0.91 0.91 95 1015.2
20260509234712 68 116 0.0 0.0 0.00 0.91 0.91 95 1015.3
20260509234209 68 106 0.0 0.0 0.00 0.91 0.91 95 1015.1
20260509233708 68 116 0.0 0.0 0.00 0.91 0.91 95 1014.8
20260509233205 68 121 0.0 0.0 0.00 0.91 0.91 95 1014.9
20260509232701 69 144 0.0 0.0 0.00 0.91 0.91 94 1014.9
20260509232157 69 112 0.0 0.0 0.00 0.91 0.91 94 1014.8
20260509231654 69 105 0.0 0.0 0.00 0.91 0.91 94 1014.7
20260509231152 69 88 0.9 1.7 0.00 0.91 0.91 94 1014.1
20260509230649 68 93 1.7 1.7 0.00 0.91 0.91 94 1013.7
20260509230146 68 104 0.0 0.0 0.05 0.91 0.91 94 1013.6